Location: RyutenAO
(34.8939°N, 134.0022°E)
Time: 11:49:56
(UTC+09:00)

N. Korean satellite - Visible Passes

Search period start: 27 November 2022 00:00
Search period end: 07 December 2022 00:00
Orbit: 422 x 454 km, 97.3° (Epoch: 26 November)

Date Brightness Start Highest point End Pass type
(mag) Time Alt. Az. Time Alt. Az. Time Alt. Az.
27 Nov 9.0 04:39:34 10° NE 04:42:15 21° E 04:44:55 10° SSE visible
27 Nov 8.0 06:12:27 10° NNW 06:14:34 16° WNW 06:16:41 10° WSW visible
28 Nov 6.4 05:32:49 10° N 05:36:11 55° WNW 05:39:29 10° SSW visible
28 Nov 9.7 17:32:40 10° SW 17:34:35 15° W 17:36:31 10° WNW visible
29 Nov 8.1 04:54:23 10° NNE 04:57:33 35° E 05:00:40 10° SSE visible
30 Nov 7.1 05:48:12 10° N 05:51:16 32° WNW 05:54:19 10° SW visible
01 Dec 6.9 05:09:16 10° NNE 05:12:39 60° E 05:15:59 10° S visible
02 Dec 9.4 04:31:35 10° NE 04:33:47 16° E 04:35:57 10° SE visible
02 Dec 7.7 06:03:37 10° NNW 06:06:12 20° WNW 06:08:44 10° WSW visible
03 Dec 6.2 05:24:10 10° N 05:27:34 77° WNW 05:30:55 10° SSW visible
03 Dec 9.5 17:23:19 10° SW 17:25:48 19° W 17:28:20 10° NW visible
04 Dec 8.7 04:45:50 10° NE 04:48:42 25° E 04:51:33 10° SSE visible
04 Dec 8.2 06:19:18 10° NW 06:20:55 13° WNW 06:22:33 10° W visible
05 Dec 6.6 05:39:04 10° N 05:42:19 44° WNW 05:45:30 10° SSW visible
05 Dec 9.9 17:39:11 10° WSW 17:40:38 12° W 17:42:06 10° WNW visible
06 Dec 7.6 05:00:14 10° NNE 05:03:27 42° E 05:06:38 10° S visible
